STARLINK-4710, 53799

Orbit data source: Space-Track

STARLINK-4710, 53799 is a payload satellite owned by SpaceX/Seattle (US) in LEO that was launched on Sun, 11 Sep 2022 UTC via an FALCON 9 launch vehicle from the Air Force Eastern Test Range (AFETR). Payload-class satellites include a variety of spacecraft equipped with specific instruments for various scientific and technological missions. These include communications satellites like Starlink; space stations such as the ISS; scientific satellites like the Hubble; Earth observation satellites from companies like Planet Labs, Umbra, and HawkEye 360; GPS; miniature CubeSats for education and research; and military/defense satellites.

Loading next visibility...
Identifier
53799, 2022-111AC
Orbit
LEO
Last TLE update
14 hours ago
Origin
Manufacturer
SpaceX/Seattle
Mission
Operational Commercial Communications
Bus & Motor
STARLINK, Unknown motor
Mass
305 kg wet, ~290 kg dry
Launch date (UTC)
2022-09-11 (3 years ago)
Launch vehicle
FALCON 9
Launch site
Air Force Eastern Test Range (AFETR)
Object type
Payload
Rocket body
Debris
Shape & HBR
Box + 1 Pan, 8.86 m
Radar Cross Section
13.562 m², Large (>1 m²)

Expand to show TLE details & history

TLE from 14 hours ago
0 STARLINK-4710
1 53799U 22111AC  25182.62852218  .00000660  00000-0  59558-4 0  9990
2 53799  53.2185 311.2476 0001309  95.6233 264.4909 15.08839188155101
Epoch: 2025-07-01T15:05Z
TLE epoch observation values (Epoch: 2025-07-01T15:05:04.316Z)
Latitude
0.00003°
Longitude
165.05839°
Altitude
540.731 km
Speed
7.593 km/s
True Right ascension
20h 44m 59s
True Declination
0° 00' 00"
Sunlit
Object was in full shadow at epoch
Visualization orbit readout
Latitude
-52.54858°
Longitude
58.54819°
Altitude
558.881 km
Speed
7.581 km/s
Apparent Right ascension
08h 28m 35s
Apparent Declination
-69° 38' 15"
Sunlit
Object is in full shadow
Visualization observer readout
Local Sidereal Time
16:38:54
Azimuth
206.087° SW
Elevation
-48.183°
Doppler factor
1
Orbital elements
Apogee altitude
540.896 km
Perigee altitude
539.085 km
Semi-major axis
6,918.128 km
Eccentricity
0.00013
Inclination
53.2185°
RAAN
311.2476°
Arg. of periapsis
95.6233°
True anomaly
Unknown
Mean anomaly
264.4909°
Eccentric anomaly
Unknown
Mean motion
3.7719 °/min
Orbital period
95.44 mins
BSTAR
0.000059558
Loading maneuver chart data...
Loading SW <> Apogee altitude chart data...
Loading historical data...
Loading historical data...
Loading historical data...
Loading historical data...
Loading historical data...
Loading historical data...
Loading historical data...

STARLINK-4710 Visibility forecast

Observer location: undefined°, undefined°

Span
Click to sort rows by Start time (UTC) header in descending order
Start Az.
Max El. time (UTC)
Max El. Az.
Max El.
End time (UTC)
End Az.
6 mins2025-07-02 10:18:25.380Z184.924° SSW2025-07-02 10:21:25.380Z134.075° SE23.536°2025-07-02 10:24:25.380Z77.691° E
6 mins2025-07-02 11:58:25.380Z263.297° W2025-07-02 12:00:25.380Z311.039° NW34.351°2025-07-02 12:04:25.380Z38.802° NE
5 mins2025-07-02 17:00:25.380Z347.828° N2025-07-02 17:02:25.380Z39.616° NE26.531°2025-07-02 17:05:25.380Z90.342° ESE
5 mins2025-07-02 18:39:25.380Z285.43° WNW2025-07-02 18:41:25.380Z229.761° WSW34.586°2025-07-02 18:44:25.380Z159.387° S
|